Terminal Aerodrome Forecast
Issued by NWS State College, PA

Home | Current Version | Previous Version | Text Only | Print | Product List | Glossary On
Versions: 1 2 3 4 5 6 7 8 9 10 11 12 13 14 15 16 17 18 19 20 21 22 23 24 25 26 27
000
FTUS41 KCTP 270339 AAB
TAFIPT
TAF AMD
KIPT 270339Z 2704/2724 09010G20KT 2SM -SHRA BR BKN008 OVC015
     FM271200 09007KT 2SM -SHRA BR BKN006 OVC012
     FM271600 23007KT 5SM BR BKN018
     FM271800 25008G15KT P6SM BKN030
     FM272000 25008G15KT P6SM BKN035=

USA.gov is the U.S. government's official web portal to all federal, state and local government web resources and services.